Alliance, NE

11:13 PM MDT on September 21, 2017 (GMT -0600)
Alliance Municipal

Weather History for KAIA - May, 2013

Change the Weather History Date:

Tuesday, May 14, 2013

  Actual Average Record
Temperature  
Mean Temperature 70 °F 54 °F  
Max Temperature 90 °F 70 °F 90 °F (2013)
Min Temperature 50 °F 39 °F 23 °F (2016)
Degree Days  
Heating Degree Days 0 11  
Month to date heating degree days 208 187  
Since 1 July heating degree days 7038 7076  
Cooling Degree Days 5 0  
Month to date cooling degree days 9 0  
Year to date cooling degree days 9 0  
Growing Degree Days 20 (Base 50)    
Moisture  
Dew Point 44 °F    
Average Humidity 46    
Maximum Humidity 74    
Minimum Humidity 17    
Precipitation  
Precipitation 0.10 in 0.07 in 1.21 in (1942)
Month to date precipitation 0.57 1.07  
Year to date precipitation 3.39 3.93  
Sea Level Pressure  
Sea Level Pressure 29.76 in    
Wind  
Wind Speed 10 mph (NE)    
Max Wind Speed 39 mph    
Max Gust Speed 56 mph    
Visibility 9 miles    
Events Rain , Thunderstorm    
T = Trace of Precipitation, MM = Missing Value Source: NWS Daily Summary

Daily Weather History Graph

Daily Weather History Graph

Search for Another Location

Airport or City:

Trip Planner

Search our weather history database for the weather conditions in past years. The results will help you decide how hot, cold, wet, or windy it might be!

Date:

Astronomy

May. 14, 2013 Rise Set
Actual Time 5:31 AM MDT 8:04 PM MDT
Civil Twilight 4:59 AM MDT 8:36 PM MDT
Nautical Twilight 4:19 AM MDT 9:16 PM MDT
Astronomical Twilight 3:34 AM MDT 10:01 PM MDT
Moon 9:13 AM MDT (5/14) 11:52 PM MDT (5/14)
Length of Visible Light 15h 36m
Length of Day
14h 33m
Waxing Crescent, 19% of the Moon is Illuminated
May 14
Waxing Crescent
May 17
First Quarter
May 24
Full
May 31
Last Quarter
Jun 8
New

Hourly Weather History & Observations

Time (MDT) Temp. Dew Point Humidity Pressure Visibility Wind Dir Wind Speed Gust Speed Precip Events Conditions
12:53 AM 63.0 °F 39.0 °F 41% 29.74 in 10.0 mi SSW 10.4 mph - N/A   Clear
1:53 AM 62.1 °F 39.0 °F 43% 29.73 in 10.0 mi SSW 9.2 mph - N/A   Clear
2:53 AM 57.9 °F 41.0 °F 53% 29.73 in 10.0 mi West 5.8 mph - N/A   Clear
3:53 AM 57.9 °F 41.0 °F 53% 29.72 in 10.0 mi WSW 6.9 mph - N/A   Clear
4:53 AM 53.1 °F 41.0 °F 64% 29.73 in 10.0 mi WNW 6.9 mph - N/A   Clear
5:20 AM 53.6 °F 41.0 °F 62% 29.86 in 10.0 mi West 9.2 mph - N/A   Scattered Clouds
5:53 AM 50.0 °F 42.1 °F 74% 29.74 in 10.0 mi WSW 10.4 mph - N/A   Clear
6:53 AM 57.9 °F 44.1 °F 60% 29.75 in 10.0 mi West 8.1 mph - N/A   Clear
7:53 AM 69.1 °F 42.1 °F 38% 29.76 in 10.0 mi West 13.8 mph - N/A   Clear
8:53 AM 80.1 °F 43.0 °F 27% 29.76 in 10.0 mi WNW 15.0 mph - N/A   Clear
9:53 AM 84.0 °F 36.0 °F 18% 29.76 in 10.0 mi NW 15.0 mph - N/A   Clear
10:53 AM 86.0 °F 37.0 °F 18% 29.77 in 10.0 mi North 17.3 mph 23.0 mph N/A   Clear
11:53 AM 86.0 °F 39.0 °F 19% 29.78 in 10.0 mi North 12.7 mph - N/A   Clear
12:15 PM 86.0 °F 39.2 °F 19% 29.91 in 10.0 mi NNE 8.1 mph 17.3 mph N/A   Partly Cloudy
12:53 PM 87.1 °F 41.0 °F 20% 29.76 in 10.0 mi NE 8.1 mph - N/A   Clear
1:53 PM 88.0 °F 37.9 °F 17% 29.74 in 10.0 mi North 4.6 mph 16.1 mph N/A   Clear
2:53 PM 89.1 °F 39.9 °F 18% 29.73 in 10.0 mi North 9.2 mph - N/A   Clear
3:53 PM 88.0 °F 41.0 °F 19% 29.71 in 10.0 mi East 5.8 mph - N/A   Clear
4:53 PM 84.9 °F 39.0 °F 20% 29.71 in 10.0 mi East 5.8 mph - N/A   Clear
5:53 PM 84.0 °F 44.1 °F 25% 29.70 in 10.0 mi ENE 8.1 mph - N/A   Clear
6:23 PM 80.6 °F 42.8 °F 26% 29.83 in 10.0 mi NE 6.9 mph - N/A Thunderstorm Scattered Clouds
6:53 PM 75.0 °F 46.0 °F 36% 29.73 in 8.0 mi Variable 5.8 mph - 0.03 in Rain , Thunderstorm Light Thunderstorms and Rain
7:00 PM 69.8 °F 48.2 °F 46% 29.80 in 2.5 mi SSE 28.8 mph 56.4 mph 0.06 in Rain , Thunderstorm Heavy Rain
7:02 PM 69.8 °F 48.2 °F 46% 29.81 in 3.0 mi SE 26.5 mph 56.4 mph 0.07 in Rain Heavy Rain
7:08 PM 71.6 °F 48.2 °F 43% 29.82 in 5.0 mi ESE 17.3 mph 34.5 mph 0.07 in Rain , Thunderstorm Light Rain
7:43 PM 68.0 °F 53.6 °F 60% 29.85 in 10.0 mi East 10.4 mph - 0.07 in   Clear
7:53 PM 66.9 °F 53.1 °F 61% 29.74 in 10.0 mi ESE 9.2 mph - 0.07 in   Clear
8:53 PM 68.0 °F 52.0 °F 56% 29.72 in 10.0 mi ESE 23.0 mph 32.2 mph 0.00 in Rain Light Rain
9:53 PM 66.9 °F 52.0 °F 59% 29.75 in 10.0 mi East 11.5 mph - 0.00 in   Clear
10:53 PM 64.9 °F 51.1 °F 61% 29.74 in 10.0 mi East 12.7 mph - N/A   Mostly Cloudy
11:53 PM 62.1 °F 48.9 °F 62% 29.76 in 10.0 mi SSE 11.5 mph - N/A   Clear